Location: *
(46.1866°S, 178.5290°W)
Time: 18:22:04
(UTC+00:00)

ERS-2 - Pass Details

Date: 19 May 2021
Orbit: 491 x 496 km, 98.5° (Epoch: 17 June)

Event Time Altitude Azimuth Distance (km) Brightness Sun altitude
Rises 06:47:36 0° 2° (N) 2,578 5.8 -23.9°
Reaches altitude 10° 06:49:42 10° 356° (N) 1,705 4.9 -24.3°
Maximum altitude 06:53:16 48° 281° (W) 674 3.1 -24.9°
Drops below altitude 10° 06:56:53 10° 205° (SSW) 1,735 5.1 -25.5°
Sets 06:59:03 0° 199° (SSW) 2,629 6.0 -25.9°
